Location: Unspecified
(0.0000°N, 0.0000°E)
Time: 20:06:18
(UTC+00:00)

Transit 2A - All Passes

Search period start: 29 June 2016 00:00
Search period end: 09 July 2016 00:00
Orbit: 592 x 968 km, 66.7° (Epoch: 28 June)

Date Brightness Start Highest point End Pass type
(mag) Time Alt. Az. Time Alt. Az. Time Alt. Az.
29 Jun - 07:58:30 10° ENE 07:58:56 10° ENE 07:59:22 10° ENE daylight
29 Jun - 09:36:22 10° NNW 09:42:11 58° WSW 09:47:28 10° S daylight
29 Jun - 20:28:30 10° SSE 20:32:20 24° ESE 20:36:27 10° NE night (unlit)
29 Jun - 22:11:58 10° WSW 22:15:17 18° WNW 22:18:50 10° NNW night (unlit)
30 Jun - 09:02:19 10° NNW 09:08:17 86° ENE 09:13:41 10° SSE daylight
30 Jun - 19:56:00 10° SE 19:58:30 14° ESE 20:01:05 10° ENE night (unlit)
30 Jun - 21:37:03 10° SW 21:41:17 31° WNW 21:45:55 10° N night (unlit)
01 Jul - 08:28:35 10° N 08:34:21 52° ENE 08:39:36 10° SE daylight
01 Jul - 10:16:01 10° W 10:17:07 11° WSW 10:18:12 10° WSW daylight
01 Jul - 21:02:40 10° SW 21:07:19 53° WNW 21:12:28 10° N night (unlit)
02 Jul - 07:55:10 10° N 08:00:23 32° ENE 08:05:11 10° SE daylight
02 Jul - 09:39:23 10° WNW 09:43:15 19° WSW 09:46:55 10° SSW daylight
02 Jul - 20:28:38 10° SSW 20:33:23 87° ESE 20:38:41 10° NNE night (unlit)
03 Jul - 07:22:13 10° NNE 07:26:22 20° ENE 07:30:16 10° ESE daylight
03 Jul - 09:04:22 10° NW 09:09:24 30° WSW 09:14:03 10° S daylight
03 Jul - 19:54:55 10° S 19:59:30 49° ESE 20:04:35 10° NE visible
04 Jul - 06:50:25 10° NE 06:52:20 12° ENE 06:54:12 10° E daylight
04 Jul - 08:29:53 10° NW 08:35:32 50° WSW 08:40:41 10° S daylight
04 Jul - 19:21:34 10° SSE 19:25:39 28° ESE 19:30:06 10° NE visible
04 Jul - 21:05:37 10° WSW 21:08:40 16° WNW 21:11:52 10° NNW visible
05 Jul - 07:55:45 10° NNW 08:01:39 84° WSW 08:06:58 10° SSE daylight
05 Jul - 18:48:46 10° SSE 18:51:49 17° ESE 18:55:00 10° ENE visible
05 Jul - 20:30:31 10° SW 20:34:39 27° WNW 20:39:08 10° N visible
06 Jul - 07:21:56 10° N 07:27:44 59° ENE 07:32:58 10° SSE daylight
06 Jul - 19:56:01 10° SW 20:00:40 46° WNW 20:05:48 10° N visible
07 Jul - 06:48:26 10° N 06:53:45 36° ENE 06:58:38 10° SE daylight
07 Jul - 08:33:16 10° WNW 08:36:36 16° WSW 08:39:45 10° SW daylight
07 Jul - 19:21:54 10° SSW 19:26:44 81° WNW 19:32:06 10° NNE visible
08 Jul - 06:15:20 10° NNE 06:19:45 22° ENE 06:23:52 10° ESE daylight
08 Jul - 07:58:01 10° NW 08:02:44 26° WSW 08:07:07 10° SSW daylight
08 Jul - 18:48:06 10° S 18:52:50 58° ESE 18:58:04 10° NNE visible
